Topeka, KS

10:14 AM CDT on August 29, 2016 (GMT -0500)
Forbes

Weather History for KFOE - March, 2013

Change the Weather History Date:

Wednesday, March 6, 2013

  Actual Average Record
Temperature  
Mean Temperature 28 °F -  
Max Temperature 37 °F 53 °F 76 °F (1987)
Min Temperature 18 °F 28 °F -5 °F (1960)
Degree Days  
Heating Degree Days 38    
Moisture  
Dew Point 19 °F    
Average Humidity 71    
Maximum Humidity 88    
Minimum Humidity 52    
Precipitation  
Precipitation 0.00 in - - ()
Sea Level Pressure  
Sea Level Pressure 30.39 in    
Wind  
Wind Speed 6 mph (ENE)    
Max Wind Speed 12 mph    
Max Gust Speed -    
Visibility 10 miles    
Events      
Averages and records for this station are not official NWS values.
T = Trace of Precipitation, MM = Missing Value Source: NWS Daily Summary

Daily Weather History Graph

Daily Weather History Graph

Search for Another Location

Airport or City:

Trip Planner

Search our weather history database for the weather conditions in past years. The results will help you decide how hot, cold, wet, or windy it might be!

Date:

Astronomy

Mar. 06, 2013 Rise Set
Actual Time 6:47 AM CST 6:20 PM CST
Civil Twilight 6:20 AM CST 6:47 PM CST
Nautical Twilight 5:49 AM CST 7:18 PM CST
Astronomical Twilight 5:18 AM CST 7:49 PM CST
Moon 2:55 AM CST (3/6) 1:05 PM CST (3/6)
Length of Visible Light 12h 26m
Length of Day
11h 33m
Waning Crescent, 29% of the Moon is Illuminated
Mar 6
Waning Crescent
Mar 11
New
Mar 19
First Quarter
Mar 27
Full
Apr 2
Last Quarter

Hourly Weather History & Observations

Time (CST) Temp. Windchill Dew Point Humidity Pressure Visibility Wind Dir Wind Speed Gust Speed Precip Events Conditions
12:53 AM 26.1 °F 18.4 °F 18.0 °F 71% 30.41 in 10.0 mi North 6.9 mph - N/A   Clear
1:53 AM 25.0 °F 14.2 °F 17.1 °F 72% 30.42 in 10.0 mi NNW 11.5 mph - N/A   Clear
2:53 AM 23.0 °F 13.1 °F 17.1 °F 78% 30.43 in 10.0 mi NNW 9.2 mph - N/A   Clear
3:53 AM 21.9 °F 12.5 °F 17.1 °F 82% 30.43 in 10.0 mi NNW 8.1 mph - N/A   Clear
4:53 AM 21.0 °F 12.4 °F 16.0 °F 81% 30.44 in 10.0 mi North 6.9 mph - N/A   Clear
5:29 AM 19.4 °F 10.4 °F 15.8 °F 86% 30.42 in 10.0 mi NW 6.9 mph - N/A   Mostly Cloudy
5:53 AM 19.9 °F 12.1 °F 16.0 °F 85% 30.45 in 10.0 mi NNW 5.8 mph - N/A   Overcast
6:11 AM 19.4 °F 11.5 °F 15.8 °F 86% 30.41 in 10.0 mi NNW 5.8 mph - N/A   Scattered Clouds
6:53 AM 18.0 °F - 15.1 °F 88% 30.45 in 10.0 mi Calm Calm - N/A   Clear
7:53 AM 21.9 °F 17.2 °F 17.1 °F 82% 30.45 in 10.0 mi NNE 3.5 mph - N/A   Clear
8:53 AM 26.1 °F 19.4 °F 18.0 °F 71% 30.47 in 10.0 mi ENE 5.8 mph - N/A   Clear
9:53 AM 28.0 °F 20.0 °F 19.0 °F 69% 30.45 in 10.0 mi ENE 8.1 mph - N/A   Clear
10:53 AM 30.0 °F 26.5 °F 19.0 °F 64% 30.45 in 10.0 mi Variable 3.5 mph - N/A   Clear
11:53 AM 33.1 °F - 19.9 °F 59% 30.45 in 10.0 mi Calm Calm - N/A   Clear
12:53 PM 36.0 °F 32.1 °F 21.0 °F 55% 30.42 in 10.0 mi SSW 4.6 mph - N/A   Clear
1:53 PM 36.0 °F 32.1 °F 21.9 °F 57% 30.39 in 10.0 mi SSE 4.6 mph - N/A   Clear
2:53 PM 37.0 °F - 21.9 °F 54% 30.37 in 10.0 mi Calm Calm - N/A   Clear
3:53 PM 37.0 °F 31.6 °F 21.0 °F 52% 30.35 in 10.0 mi SSE 6.9 mph - N/A   Clear
4:53 PM 37.0 °F 31.0 °F 21.9 °F 54% 30.34 in 10.0 mi SE 8.1 mph - N/A   Clear
5:53 PM 34.0 °F 28.8 °F 21.0 °F 59% 30.32 in 10.0 mi SE 5.8 mph - N/A   Clear
6:53 PM 30.9 °F 27.5 °F 21.0 °F 67% 30.32 in 10.0 mi ESE 3.5 mph - N/A   Clear
7:53 PM 28.9 °F 22.8 °F 21.0 °F 72% 30.30 in 10.0 mi ESE 5.8 mph - N/A   Clear
8:53 PM 28.9 °F 23.9 °F 19.9 °F 69% 30.30 in 10.0 mi ESE 4.6 mph - N/A   Clear
9:53 PM 28.9 °F 23.9 °F 21.0 °F 72% 30.29 in 10.0 mi ESE 4.6 mph - N/A   Clear
10:53 PM 28.0 °F 19.3 °F 21.0 °F 75% 30.28 in 10.0 mi ESE 9.2 mph - N/A   Clear
11:53 PM 28.0 °F 19.3 °F 21.0 °F 75% 30.28 in 10.0 mi SE 9.2 mph - N/A   Clear